Location: Great Malvern
(52.1167°N, 2.3167°W)
Time: 11:48:53
(UTC+00:00)

CZ-2C R/B - Pass Details

Date: 18 September 2020
Orbit: 785 x 870 km, 98.2° (Epoch: 30 October)

Event Time Altitude Azimuth Distance (km) Brightness Sun altitude
Rises 20:56:10 0° 10° (N) 3,404 6.2 -23.6°
Reaches altitude 10° 20:58:36 10° 4° (N) 2,477 5.5 -23.9°
Maximum altitude 21:03:46 43° 295° (WNW) 1,186 3.9 -24.6°
Drops below altitude 10° 21:09:00 10° 226° (SW) 2,503 5.2 -25.2°
Sets 21:11:29 0° 219° (SW) 3,442 5.9 -25.5°
